User: anonymous   Login
Location: Ch�teau-Arnoux
(44.0814°N, 6.0027°E)
Time: 23:51:56
(UTC+00:00)
Language:

Cosmos 2123 Rocket - Orbit

View from above orbital plane
View from above orbital plane
View from above satellite
View from above satellite

Ground track
Ground track

The orbit data is extracted from the following two-line orbital elements,

1 21090U 91007B   20028.51966467 +.00000033 +00000-0 +18578-4 0  9994
2 21090 082.9191 247.1532 0019518 242.5791 117.3381 13.76389847455130
Epoch (UTC): 28 January 2020 12:28:19
Eccentricity: 0.0019518
inclination: 82.9191°
perigee height: 962 km
apogee height: 991 km
right ascension of ascending node: 247.1532°
argument of perigee: 242.5791°
revolutions per day: 13.76389847
mean anomaly at epoch: 117.3381°
orbit number at epoch: 45513

The dashed part of the orbit path shows where the satellite is in the earth's shadow,  

DLR